Weather History for Diyarbakir, Turkey

Change the Weather History Date:

Wednesday, November 27, 2013

  Actual Average Record
Temperature  
Mean Temperature 53 °F -  
Max Temperature 60 °F 50 °F 69 °F (1998)
Min Temperature 46 °F 34 °F 19 °F (2011)
Degree Days  
Heating Degree Days 12    
Growing Degree Days 3 (Base 50)    
Moisture  
Dew Point 47 °F    
Average Humidity 82    
Maximum Humidity 100    
Minimum Humidity 49    
Precipitation  
Precipitation 0.00 in 0.10 in - ()
Sea Level Pressure  
Sea Level Pressure 30.09 in    
Wind  
Wind Speed 2 mph ()    
Max Wind Speed 9 mph    
Max Gust Speed -    
Visibility 4.6 miles    
Events      
Averages and records for this station are not official NWS values.
T = Trace of Precipitation, MM = Missing Value Source: Averaged Metar Reports

Daily Weather History Graph

Daily Weather History Graph

Search for Another Location

Airport:

Trip Planner

Search our weather history database for the weather conditions in past years. The results will help you decide how hot, cold, wet, or windy it might be!

Date:

Astronomy

Nov. 27, 2013 Rise Set
Actual Time 6:12 AM EET 4:01 PM EET
Civil Twilight 5:43 AM EET 4:30 PM EET
Nautical Twilight 5:11 AM EET 5:02 PM EET
Astronomical Twilight 4:39 AM EET 5:34 PM EET
Moon No Moon Rise 12:22 PM EET (11/27)
Length of Visible Light 10h 46m
Length of Day
9h 49m
Waning Crescent, 34% of the Moon is Illuminated
Nov 27
Waning Crescent
Dec 3
New
Dec 9
First Quarter
Dec 17
Full
Dec 25
Last Quarter

Hourly Weather History & Observations

Time (EET) Temp. Windchill Dew Point Humidity Pressure Visibility Wind Dir Wind Speed Gust Speed Precip Events Conditions
12:20 AM 48.2 °F - 48.2 °F 100% 30.12 in 3.7 mi WSW 4.6 mph - N/A   Mostly Cloudy
12:50 AM 48.2 °F - 48.2 °F 100% 30.09 in 3.7 mi North 3.5 mph - N/A   Mostly Cloudy
1:20 AM 48.2 °F - 46.4 °F 93% 30.12 in 3.7 mi Calm Calm - N/A   Mostly Cloudy
1:50 AM 48.2 °F - 46.4 °F 93% 30.12 in 3.7 mi West 4.6 mph - N/A   Mostly Cloudy
2:00 AM 49 °F - 47 °F 91% 30.12 in 4 mi West 4.6 mph - -   Mist
2:20 AM 48.2 °F - 48.2 °F 100% 30.09 in 2.5 mi Calm Calm - N/A   Mostly Cloudy
2:50 AM 48.2 °F - 46.4 °F 93% 30.09 in 2.5 mi Calm Calm - N/A   Mostly Cloudy
3:20 AM 48.2 °F - 46.4 °F 93% 30.09 in 2.5 mi Calm Calm - N/A   Mostly Cloudy
3:50 AM 48.2 °F - 46.4 °F 93% 30.12 in 2.2 mi Calm Calm - N/A   Mostly Cloudy
4:20 AM 48.2 °F - 46.4 °F 93% 30.09 in 2.2 mi ESE 1.2 mph - N/A   Mostly Cloudy
4:50 AM 48.2 °F - 46.4 °F 93% 30.06 in 2.8 mi NE 4.6 mph - N/A   Mostly Cloudy
5:00 AM 48 °F - 47 °F 94% 30.09 in 3 mi NE 4.6 mph - -   Mist
5:20 AM 48.2 °F - 46.4 °F 93% 30.09 in 4.3 mi ENE 2.3 mph - N/A   Mostly Cloudy
5:50 AM 46.4 °F - 46.4 °F 100% 30.09 in 3.7 mi Calm Calm - N/A   Mostly Cloudy
6:20 AM 46.4 °F - 46.4 °F 100% 30.09 in 1.2 mi Variable 2.3 mph - N/A   Mostly Cloudy
6:50 AM 46.4 °F 44.3 °F 46.4 °F 100% 30.12 in 0.7 mi West 4.6 mph - N/A   Mostly Cloudy
7:20 AM 48.2 °F - 48.2 °F 100% 30.12 in 1.2 mi West 4.6 mph - N/A   Mostly Cloudy
7:50 AM 50.0 °F - 48.2 °F 94% 30.12 in 1.2 mi Variable 1.2 mph - N/A   Mostly Cloudy
8:00 AM 50 °F - 49 °F 93% 30.12 in 1 mi WNW 1.2 mph - -   Mist
8:20 AM 50.0 °F - 48.2 °F 94% 30.12 in 1.6 mi WSW 4.6 mph - N/A   Mostly Cloudy
8:50 AM 51.8 °F - 48.2 °F 88% 30.09 in 1.6 mi Variable 2.3 mph - N/A   Mostly Cloudy
9:20 AM 51.8 °F - 50.0 °F 94% 30.12 in 2.2 mi WSW 4.6 mph - N/A   Mostly Cloudy
9:50 AM 53.6 °F - 48.2 °F 82% 30.09 in 3.1 mi Calm Calm - N/A   Mostly Cloudy
10:20 AM 53.6 °F - 48.2 °F 82% 30.09 in 4.3 mi Calm Calm - N/A   Mostly Cloudy
10:50 AM 55.4 °F - 48.2 °F 77% 30.09 in 4.3 mi Calm Calm - N/A   Mostly Cloudy
11:00 AM 55 °F - 48 °F 70% 30.09 in 4 mi Calm Calm - -   Mist
11:20 AM 55.4 °F - 48.2 °F 77% 30.09 in 6.2 mi Calm Calm - N/A   Mostly Cloudy
11:50 AM 57.2 °F - 48.2 °F 72% 30.06 in 6.2 mi Calm Calm - N/A   Mostly Cloudy
12:20 PM 57.2 °F - 48.2 °F 72% 30.06 in 6.2 mi NE 5.8 mph - N/A   Mostly Cloudy
12:50 PM 57.2 °F - 50.0 °F 77% 30.04 in 6.2 mi ENE 6.9 mph - N/A   Mostly Cloudy
1:20 PM 59.0 °F - 46.4 °F 63% 30.04 in 6.2 mi East 6.9 mph - N/A   Mostly Cloudy
1:50 PM 59.0 °F - 46.4 °F 63% 30.06 in 6.2 mi East 6.9 mph - N/A   Mostly Cloudy
2:00 PM 60 °F - 46 °F 49% 30.04 in 6 mi East 6.9 mph - -   Partly Cloudy
2:20 PM 59.0 °F - 46.4 °F 63% 30.04 in 6.2 mi ESE 6.9 mph - N/A   Mostly Cloudy
2:50 PM 59.0 °F - 46.4 °F 63% 30.06 in 6.2 mi East 6.9 mph - N/A   Mostly Cloudy
3:20 PM 59.0 °F - 46.4 °F 63% 30.06 in 6.2 mi ENE 2.3 mph - N/A   Mostly Cloudy
3:50 PM 59.0 °F - 46.4 °F 63% 30.06 in 6.2 mi East 2.3 mph - N/A   Mostly Cloudy
4:20 PM 57.2 °F - 46.4 °F 67% 30.06 in 6.2 mi NNE 2.3 mph - N/A   Mostly Cloudy
4:50 PM 57.2 °F - 44.6 °F 63% 30.06 in 6.2 mi ENE 3.5 mph - N/A   Mostly Cloudy
5:00 PM 56 °F - 45 °F 58% 30.08 in 6 mi ENE 3.5 mph - -   Partly Cloudy
5:20 PM 55.4 °F - 46.4 °F 72% 30.06 in 6.2 mi Calm Calm - N/A   Mostly Cloudy
5:50 PM 55.4 °F - 46.4 °F 72% 30.09 in 6.2 mi Calm Calm - N/A   Mostly Cloudy
6:20 PM 55.4 °F - 46.4 °F 72% 30.09 in 6.2 mi Calm Calm - N/A   Mostly Cloudy
6:50 PM 53.6 °F - 46.4 °F 77% 30.09 in 6.2 mi Calm Calm - N/A   Mostly Cloudy
7:20 PM 53.6 °F - 46.4 °F 77% 30.09 in 6.2 mi Calm Calm - N/A   Mostly Cloudy
7:50 PM 53.6 °F - 46.4 °F 77% 30.09 in 6.2 mi Calm Calm - N/A   Mostly Cloudy
8:00 PM 53 °F - 47 °F 73% 30.09 in 6 mi Calm Calm - -   Partly Cloudy
8:20 PM 51.8 °F - 48.2 °F 88% 30.06 in 6.2 mi SSE 3.5 mph - N/A   Mostly Cloudy
8:50 PM 51.8 °F - 48.2 °F 88% 30.06 in 6.2 mi Calm Calm - N/A   Mostly Cloudy
9:20 PM 51.8 °F - 46.4 °F 82% 30.06 in 6.2 mi NW 4.6 mph - N/A   Mostly Cloudy
9:50 PM 51.8 °F - 48.2 °F 88% 30.09 in 6.2 mi Calm Calm - N/A   Mostly Cloudy
10:20 PM 51.8 °F - 48.2 °F 88% 30.09 in 6.2 mi WNW 4.6 mph - N/A   Mostly Cloudy
10:50 PM 53.6 °F - 48.2 °F 82% 30.09 in 6.2 mi Variable 1.2 mph - N/A   Mostly Cloudy
11:00 PM 53 °F - 47 °F 75% 30.09 in 6 mi NNW 1.2 mph - -   Partly Cloudy
11:20 PM 53.6 °F - 46.4 °F 77% 30.09 in 6.2 mi SSW 6.9 mph - N/A   Mostly Cloudy
11:50 PM 51.8 °F - 46.4 °F 82% 30.09 in 6.2 mi WSW 9.2 mph - N/A   Mostly Cloudy